User: anonymous   Login
Location: Unspecified
(0.0000°N, 0.0000°E)
Time: 12:17:48
(UTC+00:00)
Language:

Alouette 2 - Orbit

View from above orbital plane
View from above orbital plane
View from above satellite
View from above satellite

Ground track
Ground track

The orbit data is extracted from the following two-line orbital elements,

1  1804U 65098A   17348.66807066 +.00000104 +00000-0 +29872-4 0  9990
2  1804 079.8022 029.9234 1343785 029.3475 337.6672 12.25317201298527
Epoch (UTC): 14 December 2017 16:02:01
Eccentricity: 0.1343785
inclination: 79.8022°
perigee height: 501 km
apogee height: 2637 km
right ascension of ascending node: 29.9234°
argument of perigee: 29.3475°
revolutions per day: 12.25317201
mean anomaly at epoch: 337.6672°
orbit number at epoch: 29852

The dashed part of the orbit path shows where the satellite is in the earth's shadow,  

DLR